Theta_e
345 346 347 347 346 347 347 347 348 348 349 350 350 350 351 352 352 351 353 354 355 356 355 355 357 357 357 355 356 355 355 354 356 353 353 355 353 352 351 352 350 351
345 347 349 348 347 348 348 348 349 349 349 351 351 351 352 352 351 351 351 352 355 355 355 355 356 356 356 354 354 354 353 355 354 355 353 352 353 351 351 351 351 350
346 346 345 345 345 346 348 348 349 349 349 351 352 352 352 353 351 351 351 352 352 353 354 354 354 356 354 354 354 354 353 353 353 354 357 353 352 352 353 352 351 350
346 346 346 347 347 346 348 348 348 349 350 350 351 352 352 352 351 350 350 355 351 352 353 353 353 353 353 353 353 353 353 353 353 354 355 356 355 353 352 352 352 351
346 345 346 347 347 348 348 347 347 348 349 350 351 352 353 352 351 350 350 351 351 351 352 352 353 352 353 352 352 352 353 352 353 353 353 353 355 355 353 352 352 351
344 347 347 347 347 347 347 347 348 348 349 349 350 352 352 352 350 349 349 349 350 350 350 351 351 351 351 351 352 353 352 352 353 352 351 351 351 352 352 353 352 351
344 345 345 347 347 346 345 347 348 349 349 350 351 351 351 351 350 350 350 350 350 351 350 350 350 350 350 351 351 352 353 354 354 353 352 351 352 351 352 353 353 351
344 346 346 346 346 346 347 347 348 349 349 350 349 350 351 350 350 350 350 350 350 350 350 350 350 350 350 350 350 350 351 352 353 354 353 352 352 352 352 352 354 352
345 345 347 346 345 346 346 347 348 349 350 349 349 350 351 350 350 350 350 350 350 350 350 350 350 349 349 349 349 350 350 350 352 353 353 352 351 352 351 353 352 353
345 345 345 346 345 346 346 348 349 350 351 351 350 351 350 351 350 350 348 349 350 351 351 350 350 349 348 349 349 350 350 351 352 354 353 353 352 352 352 352 352 352
345 345 345 345 346 347 347 348 349 350 351 350 350 350 349 347 347 346 346 345 348 351 350 350 350 349 349 348 348 349 350 351 352 353 353 353 353 353 354 353 352 352
345 345 345 345 346 346 347 348 349 350 350 350 350 349 348 347 345 345 345 344 347 349 350 350 351 350 349 349 348 349 349 350 352 353 353 353 353 352 352 353 351 352
343 343 345 345 346 346 347 347 348 349 349 348 350 348 347 345 344 344 346 345 346 348 348 349 350 349 350 349 349 349 349 349 349 351 352 353 353 353 352 353 352 352
344 344 344 345 346 346 347 348 348 348 348 349 349 347 347 345 344 344 345 346 345 346 347 349 350 349 349 349 349 349 349 349 349 349 349 350 351 353 353 352 353 353
344 345 344 344 345 345 346 346 347 347 349 348 349 348 347 347 346 346 344 344 345 345 346 347 347 347 348 348 348 348 349 348 348 348 348 348 348 349 350 352 352 353
345 345 345 344 345 343 343 345 346 348 348 347 347 348 347 346 345 347 345 344 345 345 346 347 347 347 350 351 350 349 348 347 347 348 349 349 349 348 348 350 350 351
345 345 344 344 344 343 343 344 343 344 343 342 344 345 345 346 344 343 345 346 346 346 346 347 346 346 350 341 341 348 349 348 347 348 349 349 348 349 348 349 349 350
342 343 341 339 340 341 341 341 342 342 341 342 342 342 343 345 344 344 344 346 346 346 346 346 345 347 339 338 339 339 350 350 348 348 347 348 348 348 348 349 350 350
341 341 339 338 339 340 341 341 340 341 341 342 342 343 343 342 341 343 343 343 341 342 342 343 344 345 337 336 336 336 338 351 349 348 347 347 348 349 349 350 351 351
342 341 339 338 340 340 341 341 341 341 342 342 342 342 342 342 343 341 342 340 340 340 341 342 342 347 337 334 333 333 335 341 349 346 347 345 344 347 349 350 350 350
342 342 341 341 340 340 340 340 340 341 341 342 342 340 340 341 342 342 343 342 342 341 340 341 343 341 336 333 330 329 330 342 345 346 345 345 346 348 349 350 350 350
342 342 342 342 342 340 339 339 339 340 340 342 343 343 344 344 343 343 344 343 343 344 343 342 345 338 333 332 330 328 335 342 342 341 341 341 343 347 348 348 349 349
343 343 343 342 342 342 341 340 340 341 342 344 343 343 343 343 343 344 345 345 344 344 343 345 345 338 329 328 328 327 338 342 340 340 339 339 341 344 347 348 349 349
342 343 343 343 342 342 342 342 343 343 343 345 344 343 342 343 344 344 345 345 345 344 344 344 344 344 329 325 325 325 340 343 342 340 339 340 342 344 346 347 348 351
342 343 343 343 342 342 343 342 342 342 344 345 344 344 344 344 344 343 344 344 345 345 347 345 344 344 328 324 324 324 336 345 342 339 338 339 341 342 345 346 346 349
342 343 342 343 343 343 343 343 344 343 343 343 344 344 344 343 344 344 342 343 344 346 345 347 346 345 343 324 322 322 327 344 343 340 339 340 340 338 340 343 343 344
Wind_Speed
11 10 11 11 11 10 10 11 10 10 10 10 9 9 10 9 9 9 8 7 7 7 7 7 6 5 5 5 4 4 4 5 4 3 4 3 3 4 4 3 2 3
11 10 8 9 7 8 9 10 11 11 11 10 9 9 8 8 9 9 9 8 7 7 7 6 6 6 6 5 5 5 4 4 5 2 4 5 4 4 4 4 4 2
9 10 10 12 13 14 12 10 10 10 10 10 9 8 7 7 8 8 9 9 8 7 7 6 6 6 6 6 5 5 5 5 5 4 4 5 4 4 4 3 3 4
10 11 12 13 11 11 11 10 10 9 9 8 9 7 7 7 8 9 8 9 9 8 7 7 7 6 6 6 6 5 5 5 5 4 5 4 4 4 4 3 2 2
11 11 12 11 11 11 10 11 11 10 11 11 9 10 9 9 8 7 8 9 9 8 7 7 7 6 6 6 6 5 5 5 4 4 5 5 4 4 4 3 3 4
12 11 13 15 14 13 11 11 11 11 12 11 11 9 9 10 9 9 9 9 7 7 7 7 7 6 6 6 6 6 5 5 4 5 5 5 5 4 3 3 3 4
14 13 12 10 12 11 10 11 11 11 11 11 9 9 9 9 10 10 10 9 8 8 8 8 8 7 6 6 6 6 5 5 4 5 5 5 4 5 3 4 4 4
13 11 11 12 11 12 13 11 10 10 10 10 11 10 10 10 11 8 8 8 8 8 8 7 7 8 7 6 6 6 6 4 4 5 5 5 4 6 5 4 4 5
11 11 12 14 14 12 13 12 12 11 10 11 10 9 9 9 9 8 9 8 7 8 8 7 7 7 6 7 6 7 7 5 5 6 6 5 5 6 5 4 4 4
10 11 13 13 15 14 15 14 12 10 10 10 10 9 9 7 6 6 6 3 6 7 7 8 7 7 7 6 7 7 7 7 6 6 6 6 6 6 6 5 5 5
11 11 12 14 16 13 15 12 11 10 9 11 9 9 9 8 7 9 10 11 11 9 8 9 8 8 7 7 6 6 7 7 7 6 6 7 7 7 6 6 6 6
9 9 11 15 17 14 13 12 10 10 10 9 10 11 9 9 10 9 9 10 12 14 10 9 9 8 8 7 7 6 6 6 6 7 7 7 7 7 7 6 6 6
4 2 6 11 13 13 12 12 11 10 10 9 7 8 10 10 10 9 9 10 11 9 9 8 8 8 8 8 7 7 7 6 6 7 7 6 7 7 6 6 6 6
3 4 3 4 6 6 7 7 7 8 10 9 9 10 9 11 11 9 8 8 8 7 7 6 6 6 7 7 7 7 7 7 6 7 7 7 6 6 6 6 6 6
0 3 4 4 4 5 6 6 5 4 5 6 7 7 7 8 9 8 7 8 8 8 8 8 7 7 6 6 6 7 6 7 7 7 7 7 6 6 6 6 6 6
3 2 3 3 4 4 5 5 3 3 3 3 3 4 5 6 4 6 7 8 9 9 8 7 6 6 8 12 10 7 7 6 7 7 8 7 7 7 6 6 7 6
3 4 3 3 3 5 4 4 4 4 5 5 4 6 8 8 9 8 8 7 9 9 9 7 6 6 11 12 13 13 8 7 7 7 7 7 7 7 7 6 6 7
1 2 6 5 3 6 8 7 6 5 5 6 6 5 3 4 9 10 8 6 3 2 3 5 6 8 11 11 12 13 12 8 7 6 6 6 6 7 6 6 6 6
5 4 4 6 5 4 2 3 5 5 6 7 7 6 5 5 4 5 6 4 3 6 8 8 8 10 15 15 14 14 15 12 6 6 5 4 4 6 7 7 6 5
5 6 7 6 6 5 5 6 6 7 6 6 5 5 7 7 9 8 7 9 10 10 8 8 10 12 13 12 12 13 14 11 2 2 1 4 7 8 7 7 8 7
6 6 7 6 8 8 7 7 7 7 8 6 6 7 7 8 8 9 9 11 10 10 11 10 11 14 13 13 12 10 7 7 6 4 3 5 6 7 8 8 8 7
6 6 7 7 7 7 7 7 7 7 7 7 7 6 6 6 6 8 9 10 9 9 10 11 10 13 13 13 13 9 11 5 3 5 5 6 6 7 8 8 8 8
7 8 7 7 7 7 8 7 6 6 6 6 7 8 9 10 9 9 9 9 10 10 10 9 8 9 11 11 10 12 10 6 4 3 4 6 8 8 8 8 7 7
7 7 7 8 7 8 8 7 7 6 6 6 7 8 8 9 8 8 7 8 10 10 10 8 7 8 11 11 11 11 9 7 7 6 9 8 8 8 7 6 8 12
7 7 7 7 7 7 7 7 7 6 6 6 7 6 7 5 6 7 7 7 7 8 10 10 6 7 11 11 11 14 12 7 8 8 8 9 5 6 6 5 6 6
6 6 6 7 7 6 5 6 5 6 6 6 6 6 6 5 5 6 8 7 6 7 7 7 6 5 7 11 11 12 13 8 6 7 6 2 4 8 6 6 5 5
Wind_Direction
201 195 200 200 201 196 190 190 188 187 192 191 191 192 193 193 184 181 178 176 184 188 185 184 180 176 170 174 183 192 200 211 222 193 217 210 198 170 178 190 202 193
203 205 205 207 200 200 200 196 191 189 190 193 194 189 190 188 189 183 181 181 181 190 188 182 176 177 176 175 177 191 214 205 224 196 200 221 228 192 195 188 199 195
204 200 204 204 202 202 198 196 194 193 190 192 190 188 184 186 187 188 185 183 185 188 187 184 177 174 171 178 177 191 208 208 217 208 199 219 222 213 212 184 182 191
213 209 209 210 213 209 198 192 195 193 189 185 190 186 182 183 186 189 191 187 187 191 189 185 184 172 168 175 172 190 203 208 218 194 208 217 214 219 222 184 190 192
215 211 213 214 208 211 202 198 195 192 189 190 186 185 185 185 185 188 192 193 189 187 189 192 185 177 168 170 172 188 191 206 205 191 202 220 215 205 223 195 202 209
220 218 212 206 205 205 198 198 197 193 192 185 188 184 187 184 184 188 190 191 186 186 184 188 188 186 174 173 171 188 194 199 196 184 204 219 226 202 219 199 206 222
219 217 215 216 203 200 206 207 197 196 193 191 182 188 185 187 190 192 191 193 189 190 188 190 196 193 188 176 181 188 191 196 185 184 204 224 223 228 214 206 203 219
215 211 204 205 206 198 196 203 210 197 195 186 186 188 186 189 193 190 190 190 192 194 194 189 193 197 186 177 181 189 194 191 185 181 198 225 220 239 221 215 202 215
211 207 204 202 199 196 198 197 206 199 191 190 188 184 188 190 191 191 193 190 197 199 199 195 191 194 191 186 191 189 195 200 197 186 195 210 217 229 227 206 211 215
211 205 207 204 197 191 194 197 200 195 190 190 185 173 178 163 104 69 32 314 212 202 197 201 191 192 192 193 192 190 195 201 199 199 200 207 214 222 220 204 211 214
218 208 207 206 201 191 186 188 194 188 188 188 175 173 167 144 144 156 162 181 211 203 195 201 198 192 192 193 196 194 198 199 202 202 206 207 214 219 221 210 211 218
223 217 207 201 193 181 176 173 185 187 185 185 177 173 156 155 167 171 172 192 201 203 196 198 200 197 196 196 196 196 199 203 202 203 205 208 211 214 216 213 217 214
153 142 179 169 162 165 169 170 177 186 180 177 175 163 157 163 179 170 187 200 209 205 201 197 197 200 202 201 200 198 199 201 206 204 204 202 204 208 210 213 218 221
162 129 76 77 114 139 158 159 161 179 185 179 172 170 167 177 181 177 184 193 205 210 207 198 197 199 199 201 199 197 195 202 204 207 208 206 205 204 207 210 213 220
31 118 148 124 98 108 154 149 165 190 207 188 175 170 166 190 184 186 185 194 204 210 209 206 204 205 196 196 196 199 198 201 202 208 210 211 211 211 206 210 217 218
175 162 158 161 151 137 133 136 164 144 133 112 128 168 175 195 177 205 202 203 206 211 209 210 210 208 206 203 200 198 197 204 204 209 213 215 217 218 216 212 219 220
146 155 138 139 131 91 78 96 105 109 123 139 171 170 172 162 189 218 219 222 213 207 207 206 210 211 207 206 207 207 201 204 208 211 209 211 213 215 223 218 219 221
195 57 95 95 121 156 167 167 166 161 170 187 197 208 182 163 176 199 208 229 285 316 289 267 245 232 225 216 208 211 212 207 207 211 207 209 211 214 220 222 225 222
182 152 162 164 162 152 144 139 173 183 186 188 197 188 165 184 200 202 193 178 176 214 211 221 235 229 226 223 212 211 215 217 214 216 220 233 234 223 220 225 224 224
183 164 185 192 189 185 186 177 178 191 196 198 190 191 198 195 188 191 195 194 197 211 219 227 231 239 222 213 210 211 215 212 77 77 200 184 232 243 237 224 222 221
181 182 191 185 181 191 200 206 203 195 197 196 198 201 205 205 205 193 199 204 201 202 214 221 227 224 219 213 208 204 182 146 182 198 227 227 225 237 238 234 225 220
182 182 197 196 181 189 203 216 217 209 204 199 200 209 211 204 191 200 204 205 202 204 208 219 225 215 210 210 209 172 111 104 149 173 211 253 258 248 239 235 231 226
182 186 193 195 194 193 201 208 211 211 209 198 204 203 206 207 208 205 205 201 202 204 213 220 221 210 207 207 207 155 148 182 185 205 236 245 248 247 244 237 227 222
186 183 189 191 190 199 202 205 208 212 212 209 211 209 210 212 209 211 202 202 203 207 208 208 213 203 194 198 191 161 185 187 178 192 230 241 250 249 244 241 237 230
188 185 190 190 196 201 202 202 203 204 201 200 211 213 220 214 216 219 217 213 212 213 210 212 209 204 192 203 190 180 192 178 176 196 217 233 254 275 261 245 244 244
181 184 185 193 201 201 195 199 186 190 194 200 207 209 214 204 212 216 220 222 215 218 219 216 208 204 198 200 201 195 199 187 190 196 195 159 217 231 245 245 236 242